Voltar ao catálogo

FENGYUN 1C DEB

AtivoPO
NORAD 30885·DEBRIS·🇨🇳 China

Lançado May 10, 1999 de Taiyuan Satellite Launch Center

Loading…

Próximas Passagens (próximas 24 horas)

TLE

AtualizadoSource: Space-Track

Época: Sep 13, 2026, 14:08 UTC

1 30885U 99025AXX 26256.58925823  .00004813  00000-0  11502-2 0  9999
2 30885  99.0119 122.2194 0051092 109.3790 280.7211 14.53341455  9388

Acompanhe FENGYUN 1C DEB em tempo real com AllMySat

Download on the App Store